Home > Weather > Joensuu > Past weeks

Flag for Finland Past Weather in Joensuu, Finland — Yesterday and Last 2 Weeks

Now
68 °F

Passing clouds.


Feels Like: 68 °F
Forecast: 57 / 75 °F
Wind: 6 mph from Southeast

Location: Joensuu Airport

Current Time: Jun 30, 2016 at 10:42:26 PM

Latest Report: Jun 30, 2016 at 10:20 PM


Visibility: N/A

Pressure: 29.95 "Hg

Humidity: 69%

Dew Point: 57 °F

Location of JoensuuLocation

Past Weather in Joensuu — Graph

°F

Joensuu Temperature Yesterday

Maximum temperature yesterday: 68 °F (at 3:20 PM)
Minimum temperature yesterday: 57 °F (at 12:20 AM)
Average temperature yesterday: 62 °F

High & Low Weather Summary for the Past Weeks

 TemperatureHumidityPressure
High77 °F (Jun 16, 4:50 PM)100% (Jun 17, 1:50 AM)30.18 "Hg (Jun 17, 1:50 AM)
Low52 °F (Jun 20, 1:50 AM)31% (Jun 26, 4:50 PM)29.45 "Hg (Jun 18, 10:50 AM)
Average63 °F73%29.91 "Hg
* Reported Jun 15 9:20 PM — Jun 30 9:20 PM, Joensuu, Weather by CustomWeather, © 2016

Note: Actual official high and low records may vary slightly from our data, if they occured in-between our weather recording intervals... More about our weather records

Advertising

Joensuu Weather History for the Previous 24 Hours

Scroll right to see more
 ConditionsComfort  
Time TempWeatherWind HumidityBarometerVisibility
9:20 PM
Thu, Jun 30
70 °FPassing clouds.5 mph60%29.92 "HgN/A
8:50 PM72 °FPassing clouds.7 mph53%29.92 "HgN/A
8:20 PM73 °FPassing clouds.7 mph50%29.92 "HgN/A
7:50 PM73 °FPassing clouds.7 mph50%29.92 "HgN/A
7:20 PM75 °FPassing clouds.7 mph44%29.92 "HgN/A
6:50 PM75 °FPassing clouds.7 mph44%29.92 "HgN/A
6:20 PM75 °FPassing clouds.8 mph44%29.92 "HgN/A
5:50 PM75 °FPassing clouds.7 mph44%29.92 "HgN/A
5:20 PM75 °FPassing clouds.8 mph44%29.95 "HgN/A
4:50 PM75 °FPassing clouds.8 mph44%29.95 "HgN/A
4:20 PM75 °FPassing clouds.9 mph47%29.95 "HgN/A
3:50 PM75 °FPassing clouds.7 mph44%29.95 "HgN/A
3:20 PM73 °FPassing clouds.8 mph50%29.95 "HgN/A
2:50 PM73 °FPassing clouds.8 mph53%29.95 "HgN/A
2:20 PM73 °FPassing clouds.7 mph53%29.95 "HgN/A
1:50 PM72 °FPassing clouds.8 mph61%29.98 "HgN/A
1:20 PM72 °FPassing clouds.8 mph65%29.98 "HgN/A
12:50 PM70 °FPassing clouds.8 mph69%29.98 "HgN/A
12:20 PM70 °FPassing clouds.8 mph73%29.98 "HgN/A
11:50 AM68 °FPassing clouds.7 mph83%29.98 "HgN/A
11:20 AM68 °FPassing clouds.7 mph78%29.98 "HgN/A
10:50 AM66 °FPassing clouds.6 mph88%29.98 "HgN/A
10:20 AM64 °FPassing clouds.6 mph88%29.98 "HgN/A
9:50 AM63 °FPassing clouds.3 mph100%29.98 "HgN/A
9:20 AM61 °FLow clouds.5 mph100%29.98 "HgN/A
8:50 AM59 °FLow clouds.3 mph100%29.98 "Hg5 mi
8:20 AM59 °FFog.6 mph100%29.98 "Hg0 mi
7:50 AM59 °FFog.5 mph100%29.98 "Hg0 mi
7:20 AM59 °FFog.6 mph100%29.98 "Hg0 mi
6:50 AM59 °FFog.6 mph100%29.98 "Hg0 mi
6:20 AM59 °FFog.3 mph100%29.98 "Hg0 mi
5:50 AM59 °FFog.2 mph100%29.98 "Hg0 mi
5:20 AM59 °FFog.3 mph100%29.98 "Hg0 mi
4:50 AM57 °FFog.2 mph100%29.98 "Hg0 mi
4:20 AM55 °FFog.2 mph100%29.98 "Hg0 mi
3:50 AM55 °FFog.5 mph100%29.98 "Hg0 mi
3:20 AM54 °FFog.5 mph100%29.98 "Hg0 mi
2:50 AM55 °FFog.3 mph100%29.98 "Hg0 mi
2:20 AM55 °FFog.3 mph100%29.98 "Hg0 mi
1:50 AM55 °FDense fog.3 mph100%29.98 "Hg0 mi
1:20 AM55 °FFog.No wind100%29.98 "Hg3 mi
12:50 AM57 °FClear.No wind94%29.95 "Hg0 mi
12:20 AM57 °FFog.No wind100%29.95 "Hg1 mi
11:50 PM
Wed, Jun 29
59 °FFog.No wind94%29.95 "HgN/A
11:20 PM59 °FSunny.No wind100%29.95 "Hg10 mi
10:50 PM61 °FSunny.No wind94%29.95 "Hg10 mi
10:20 PM64 °FSunny.1 mph83%29.95 "Hg10 mi
Weather by CustomWeather, © 2016

See weather overviewHow to use our weather pages